QPF
0.00 0.01 0.02 0.07 0.14 0.16 0.14 0.10 0.06 0.05 0.03 0.01 0.01 0.01 0.01 0.01 0.03 0.03 0.03 0.06 0.09 0.10 0.08 0.06 0.06 0.05 0.04 0.04 0.04 0.05 0.05 0.05 0.04 0.02 0.02 0.01 0.01 0.01 0.00 0.00 0.00 0.00 0.00
0.00 0.01 0.02 0.05 0.09 0.10 0.09 0.07 0.07 0.06 0.04 0.03 0.02 0.03 0.04 0.05 0.06 0.06 0.08 0.14 0.16 0.12 0.08 0.05 0.04 0.03 0.03 0.04 0.03 0.02 0.01 0.01 0.01 0.01 0.01 0.00 0.00 0.00 0.00 0.00 0.00 0.00 0.00
0.00 0.00 0.01 0.02 0.03 0.04 0.04 0.03 0.04 0.04 0.04 0.04 0.04 0.05 0.05 0.05 0.05 0.04 0.05 0.08 0.10 0.10 0.07 0.04 0.03 0.02 0.02 0.01 0.01 0.01 0.00 0.00 0.00 0.00 0.01 0.01 0.00 0.00 0.00 0.00 0.00 0.00 0.00
0.00 0.00 0.00 0.01 0.01 0.01 0.01 0.01 0.01 0.01 0.02 0.02 0.02 0.03 0.03 0.03 0.02 0.03 0.03 0.04 0.04 0.04 0.03 0.02 0.01 0.01 0.00 0.00 0.00 0.00 0.00 0.00 0.00 0.00 0.00 0.00 0.01 0.01 0.00 0.00 0.00 0.00 0.00
0.00 0.00 0.00 0.00 0.00 0.00 0.00 0.00 0.00 0.00 0.00 0.00 0.00 0.00 0.01 0.00 0.01 0.01 0.01 0.01 0.00 0.00 0.00 0.00 0.00 0.00 0.00 0.00 0.00 0.00 0.00 0.00 0.00 0.00 0.00 0.00 0.00 0.00 0.01 0.01 0.00 0.00 0.00
0.00 0.00 0.00 0.00 0.00 0.00 0.00 0.00 0.00 0.00 0.00 0.00 0.00 0.00 0.00 0.00 0.00 0.00 0.00 0.00 0.00 0.00 0.00 0.00 0.00 0.00 0.00 0.00 0.00 0.00 0.00 0.00 0.00 0.00 0.00 0.01 0.01 0.01 0.01 0.01 0.01 0.01 0.00
0.00 0.00 0.00 0.00 0.00 0.00 0.00 0.00 0.00 0.00 0.00 0.00 0.00 0.00 0.00 0.00 0.00 0.00 0.00 0.00 0.00 0.00 0.00 0.00 0.00 0.00 0.00 0.00 0.00 0.00 0.00 0.00 0.00 0.00 0.00 0.00 0.01 0.01 0.02 0.02 0.02 0.01 0.00
0.00 0.00 0.00 0.00 0.00 0.00 0.00 0.00 0.00 0.00 0.00 0.00 0.00 0.00 0.00 0.00 0.00 0.00 0.00 0.00 0.00 0.00 0.00 0.00 0.00 0.00 0.00 0.00 0.00 0.00 0.00 0.00 0.00 0.00 0.01 0.01 0.01 0.01 0.02 0.03 0.04 0.04 0.02
0.00 0.00 0.00 0.00 0.00 0.00 0.00 0.00 0.00 0.00 0.00 0.00 0.00 0.00 0.00 0.00 0.00 0.00 0.00 0.00 0.00 0.00 0.00 0.00 0.00 0.00 0.00 0.00 0.00 0.00 0.00 0.01 0.01 0.01 0.01 0.01 0.01 0.01 0.02 0.03 0.05 0.06 0.06
0.01 0.00 0.00 0.00 0.00 0.00 0.00 0.00 0.00 0.00 0.00 0.00 0.00 0.00 0.00 0.00 0.00 0.00 0.00 0.00 0.00 0.00 0.00 0.00 0.00 0.00 0.00 0.00 0.00 0.00 0.01 0.01 0.01 0.01 0.01 0.01 0.01 0.01 0.01 0.02 0.03 0.04 0.06
0.01 0.00 0.00 0.00 0.00 0.00 0.00 0.00 0.00 0.00 0.00 0.00 0.00 0.00 0.00 0.00 0.00 0.00 0.00 0.00 0.00 0.00 0.00 0.00 0.00 0.01 0.00 0.00 0.00 0.01 0.01 0.01 0.00 0.00 0.01 0.01 0.01 0.01 0.01 0.02 0.02 0.02 0.04
0.01 0.00 0.00 0.00 0.00 0.00 0.00 0.00 0.00 0.00 0.00 0.00 0.00 0.00 0.00 0.00 0.00 0.00 0.00 0.00 0.00 0.00 0.00 0.00 0.00 0.00 0.00 0.00 0.00 0.00 0.00 0.00 0.00 0.00 0.00 0.00 0.01 0.01 0.01 0.02 0.02 0.02 0.03
0.01 0.00 0.00 0.00 0.00 0.00 0.00 0.00 0.00 0.00 0.00 0.00 0.00 0.00 0.00 0.00 0.00 0.00 0.00 0.00 0.00 0.00 0.00 0.00 0.00 0.00 0.00 0.00 0.00 0.00 0.00 0.00 0.00 0.00 0.00 0.00 0.01 0.01 0.02 0.02 0.02 0.02 0.03
0.01 0.01 0.00 0.00 0.00 0.00 0.00 0.00 0.00 0.00 0.00 0.00 0.00 0.00 0.00 0.00 0.00 0.00 0.00 0.00 0.00 0.00 0.00 0.00 0.00 0.00 0.00 0.00 0.00 0.00 0.00 0.00 0.00 0.00 0.00 0.01 0.02 0.03 0.02 0.02 0.02 0.02 0.01
0.03 0.01 0.00 0.00 0.00 0.00 0.00 0.00 0.00 0.00 0.00 0.00 0.00 0.00 0.00 0.00 0.00 0.00 0.00 0.00 0.00 0.00 0.00 0.00 0.00 0.00 0.00 0.00 0.00 0.00 0.00 0.00 0.00 0.00 0.01 0.01 0.02 0.03 0.02 0.01 0.01 0.01 0.01
0.03 0.01 0.00 0.00 0.00 0.00 0.00 0.00 0.00 0.00 0.00 0.00 0.00 0.00 0.00 0.00 0.00 0.00 0.00 0.00 0.00 0.00 0.00 0.00 0.00 0.00 0.00 0.00 0.00 0.00 0.00 0.00 0.00 0.00 0.01 0.01 0.01 0.00 0.00 0.00 0.01 0.01 0.03
0.01 0.00 0.00 0.00 0.00 0.00 0.00 0.00 0.00 0.00 0.00 0.00 0.00 0.00 0.00 0.00 0.00 0.00 0.00 0.00 0.00 0.00 0.00 0.00 0.00 0.00 0.00 0.00 0.00 0.00 0.00 0.00 0.00 0.00 0.00 0.01 0.00 0.00 0.00 0.00 0.00 0.02 0.05
0.00 0.00 0.00 0.00 0.00 0.00 0.00 0.00 0.00 0.00 0.00 0.00 0.00 0.00 0.00 0.00 0.00 0.00 0.00 0.00 0.00 0.00 0.00 0.00 0.00 0.00 0.00 0.00 0.00 0.00 0.00 0.00 0.00 0.00 0.00 0.01 0.00 0.00 0.00 0.00 0.00 0.02 0.05
0.00 0.00 0.00 0.00 0.00 0.00 0.00 0.00 0.00 0.00 0.00 0.00 0.00 0.00 0.00 0.00 0.00 0.00 0.00 0.00 0.00 0.00 0.00 0.00 0.00 0.00 0.00 0.00 0.00 0.00 0.00 0.00 0.00 0.00 0.00 0.00 0.00 0.01 0.01 0.00 0.01 0.04 0.07
0.00 0.00 0.00 0.00 0.00 0.00 0.00 0.00 0.00 0.00 0.00 0.00 0.00 0.00 0.00 0.00 0.00 0.00 0.00 0.00 0.00 0.00 0.00 0.00 0.00 0.00 0.00 0.00 0.00 0.00 0.00 0.00 0.00 0.00 0.00 0.00 0.01 0.01 0.01 0.01 0.03 0.07 0.11
0.00 0.00 0.00 0.00 0.00 0.00 0.00 0.00 0.00 0.00 0.00 0.00 0.00 0.00 0.00 0.00 0.00 0.00 0.00 0.00 0.00 0.00 0.00 0.00 0.00 0.00 0.00 0.00 0.00 0.00 0.00 0.00 0.00 0.00 0.00 0.01 0.02 0.02 0.02 0.04 0.07 0.12 0.15
0.00 0.00 0.00 0.00 0.00 0.00 0.00 0.00 0.00 0.00 0.00 0.00 0.00 0.00 0.00 0.00 0.00 0.00 0.00 0.00 0.00 0.00 0.00 0.00 0.00 0.00 0.00 0.00 0.00 0.00 0.00 0.00 0.00 0.01 0.02 0.04 0.05 0.03 0.04 0.08 0.13 0.16 0.18
0.00 0.00 0.00 0.00 0.00 0.00 0.00 0.00 0.00 0.00 0.00 0.00 0.00 0.00 0.00 0.00 0.00 0.00 0.00 0.00 0.00 0.00 0.00 0.00 0.00 0.00 0.00 0.00 0.00 0.00 0.00 0.00 0.01 0.03 0.07 0.07 0.04 0.04 0.07 0.14 0.18 0.18 0.17
0.00 0.00 0.00 0.00 0.00 0.00 0.00 0.00 0.00 0.00 0.00 0.00 0.00 0.00 0.00 0.00 0.00 0.00 0.00 0.00 0.00 0.00 0.00 0.00 0.00 0.00 0.00 0.00 0.00 0.00 0.00 0.01 0.01 0.03 0.05 0.05 0.04 0.07 0.12 0.17 0.19 0.19 0.18
0.00 0.00 0.00 0.00 0.00 0.00 0.00 0.00 0.00 0.00 0.00 0.00 0.00 0.00 0.00 0.00 0.00 0.00 0.00 0.00 0.00 0.00 0.00 0.00 0.00 0.00 0.01 0.01 0.01 0.01 0.01 0.02 0.03 0.03 0.02 0.02 0.04 0.08 0.13 0.16 0.18 0.18 0.18
0.00 0.00 0.00 0.00 0.00 0.00 0.00 0.00 0.00 0.00 0.00 0.00 0.00 0.00 0.00 0.00 0.00 0.00 0.00 0.00 0.00 0.00 0.00 0.00 0.00 0.00 0.01 0.01 0.01 0.01 0.01 0.03 0.04 0.03 0.03 0.05 0.08 0.11 0.14 0.16 0.17 0.18 0.18
MSLP
1014.45 1014.91 1015.28 1015.52 1015.65 1015.68 1015.65 1015.62 1015.63 1015.72 1015.90 1016.16 1016.48 1016.83 1017.16 1017.43 1017.63 1017.75 1017.80 1017.79 1017.75 1017.70 1017.65 1017.61 1017.58 1017.55 1017.52 1017.48 1017.43 1017.37 1017.32 1017.26 1017.20 1017.13 1017.03 1016.89 1016.70 1016.44 1016.10 1015.72 1015.30 1014.86 1014.43
1014.86 1015.34 1015.72 1015.97 1016.10 1016.12 1016.09 1016.07 1016.11 1016.24 1016.47 1016.79 1017.17 1017.55 1017.89 1018.16 1018.33 1018.40 1018.39 1018.32 1018.23 1018.13 1018.05 1017.98 1017.93 1017.89 1017.84 1017.78 1017.72 1017.65 1017.59 1017.54 1017.49 1017.43 1017.35 1017.23 1017.04 1016.77 1016.42 1016.00 1015.54 1015.06 1014.59
1015.12 1015.65 1016.08 1016.38 1016.54 1016.60 1016.60 1016.61 1016.68 1016.84 1017.12 1017.48 1017.89 1018.30 1018.65 1018.90 1019.03 1019.05 1018.99 1018.86 1018.71 1018.57 1018.45 1018.35 1018.28 1018.22 1018.16 1018.09 1018.02 1017.94 1017.88 1017.82 1017.78 1017.73 1017.65 1017.53 1017.33 1017.06 1016.69 1016.25 1015.76 1015.25 1014.76
1015.26 1015.86 1016.36 1016.74 1016.97 1017.09 1017.13 1017.18 1017.28 1017.48 1017.78 1018.17 1018.59 1019.00 1019.34 1019.57 1019.68 1019.66 1019.55 1019.37 1019.18 1018.99 1018.83 1018.71 1018.62 1018.54 1018.47 1018.40 1018.32 1018.24 1018.16 1018.10 1018.04 1017.98 1017.89 1017.75 1017.54 1017.24 1016.86 1016.40 1015.90 1015.38 1014.86
1015.31 1015.99 1016.59 1017.05 1017.37 1017.56 1017.67 1017.75 1017.88 1018.09 1018.40 1018.78 1019.20 1019.60 1019.93 1020.15 1020.23 1020.18 1020.03 1019.82 1019.59 1019.37 1019.18 1019.04 1018.93 1018.84 1018.76 1018.68 1018.59 1018.50 1018.41 1018.33 1018.24 1018.14 1018.02 1017.84 1017.60 1017.28 1016.87 1016.40 1015.89 1015.36 1014.84
1015.30 1016.06 1016.76 1017.33 1017.74 1018.01 1018.17 1018.29 1018.43 1018.64 1018.93 1019.30 1019.70 1020.08 1020.38 1020.58 1020.64 1020.58 1020.41 1020.18 1019.92 1019.68 1019.47 1019.30 1019.18 1019.08 1019.00 1018.91 1018.81 1018.71 1018.59 1018.47 1018.34 1018.19 1018.00 1017.77 1017.48 1017.12 1016.70 1016.21 1015.69 1015.16 1014.63
1015.27 1016.10 1016.89 1017.56 1018.06 1018.40 1018.62 1018.77 1018.92 1019.11 1019.38 1019.71 1020.07 1020.41 1020.69 1020.87 1020.92 1020.84 1020.66 1020.41 1020.15 1019.89 1019.66 1019.49 1019.35 1019.25 1019.15 1019.06 1018.95 1018.82 1018.67 1018.50 1018.31 1018.09 1017.83 1017.53 1017.18 1016.78 1016.33 1015.83 1015.31 1014.78 1014.25
1015.22 1016.13 1017.00 1017.76 1018.34 1018.75 1019.01 1019.19 1019.34 1019.51 1019.74 1020.02 1020.33 1020.63 1020.87 1021.02 1021.05 1020.96 1020.78 1020.53 1020.25 1019.98 1019.75 1019.56 1019.42 1019.31 1019.21 1019.11 1018.98 1018.83 1018.64 1018.41 1018.14 1017.84 1017.51 1017.14 1016.73 1016.28 1015.80 1015.30 1014.78 1014.25 1013.73
1015.18 1016.15 1017.10 1017.92 1018.58 1019.05 1019.36 1019.55 1019.70 1019.85 1020.04 1020.26 1020.52 1020.76 1020.95 1021.06 1021.07 1020.97 1020.77 1020.52 1020.23 1019.96 1019.72 1019.53 1019.38 1019.26 1019.16 1019.05 1018.90 1018.72 1018.49 1018.20 1017.87 1017.49 1017.08 1016.63 1016.17 1015.68 1015.18 1014.67 1014.16 1013.64 1013.13
1015.19 1016.21 1017.20 1018.09 1018.80 1019.32 1019.67 1019.89 1020.04 1020.16 1020.31 1020.48 1020.66 1020.83 1020.97 1021.02 1020.99 1020.86 1020.65 1020.39 1020.10 1019.83 1019.59 1019.39 1019.24 1019.12 1019.01 1018.89 1018.73 1018.52 1018.25 1017.91 1017.52 1017.08 1016.59 1016.09 1015.57 1015.05 1014.54 1014.03 1013.53 1013.02 1012.52
1015.27 1016.33 1017.35 1018.27 1019.02 1019.58 1019.96 1020.21 1020.36 1020.47 1020.57 1020.67 1020.78 1020.88 1020.93 1020.92 1020.83 1020.66 1020.43 1020.15 1019.87 1019.60 1019.36 1019.18 1019.03 1018.92 1018.81 1018.68 1018.51 1018.28 1017.97 1017.59 1017.15 1016.65 1016.12 1015.57 1015.02 1014.47 1013.95 1013.43 1012.93 1012.44 1011.94
1015.49 1016.55 1017.58 1018.50 1019.26 1019.85 1020.25 1020.51 1020.66 1020.75 1020.81 1020.85 1020.88 1020.89 1020.85 1020.76 1020.61 1020.39 1020.13 1019.85 1019.57 1019.31 1019.09 1018.92 1018.78 1018.68 1018.57 1018.44 1018.26 1018.02 1017.69 1017.28 1016.81 1016.27 1015.70 1015.12 1014.54 1013.97 1013.43 1012.90 1012.40 1011.90 1011.40
1015.84 1016.89 1017.89 1018.79 1019.54 1020.12 1020.53 1020.80 1020.95 1021.01 1021.02 1020.99 1020.94 1020.85 1020.72 1020.54 1020.32 1020.07 1019.78 1019.50 1019.23 1018.99 1018.80 1018.65 1018.54 1018.45 1018.35 1018.22 1018.03 1017.77 1017.43 1017.00 1016.50 1015.94 1015.35 1014.74 1014.14 1013.55 1012.98 1012.43 1011.90 1011.37 1010.85
1016.35 1017.34 1018.28 1019.13 1019.83 1020.39 1020.78 1021.04 1021.17 1021.20 1021.16 1021.07 1020.92 1020.74 1020.52 1020.26 1019.98 1019.69 1019.40 1019.12 1018.88 1018.68 1018.52 1018.41 1018.33 1018.25 1018.16 1018.02 1017.82 1017.55 1017.19 1016.74 1016.22 1015.65 1015.04 1014.41 1013.78 1013.16 1012.56 1011.97 1011.39 1010.82 1010.27
1016.96 1017.88 1018.73 1019.48 1020.12 1020.62 1020.98 1021.20 1021.30 1021.30 1021.21 1021.04 1020.81 1020.54 1020.24 1019.92 1019.60 1019.29 1019.00 1018.75 1018.55 1018.40 1018.30 1018.22 1018.17 1018.10 1018.01 1017.86 1017.64 1017.34 1016.95 1016.49 1015.95 1015.36 1014.73 1014.08 1013.42 1012.76 1012.11 1011.47 1010.83 1010.21 1009.60
1017.63 1018.44 1019.17 1019.82 1020.36 1020.79 1021.09 1021.27 1021.33 1021.28 1021.13 1020.90 1020.60 1020.26 1019.90 1019.54 1019.19 1018.89 1018.63 1018.43 1018.29 1018.20 1018.14 1018.11 1018.07 1018.01 1017.90 1017.72 1017.47 1017.13 1016.71 1016.21 1015.65 1015.03 1014.38 1013.70 1013.01 1012.31 1011.61 1010.91 1010.21 1009.52 1008.86
1018.26 1018.95 1019.57 1020.09 1020.53 1020.87 1021.10 1021.23 1021.24 1021.14 1020.94 1020.66 1020.31 1019.92 1019.53 1019.14 1018.81 1018.53 1018.32 1018.19 1018.11 1018.09 1018.09 1018.09 1018.06 1017.98 1017.84 1017.61 1017.31 1016.91 1016.44 1015.89 1015.29 1014.65 1013.96 1013.25 1012.53 1011.79 1011.04 1010.28 1009.52 1008.79 1008.08
1018.79 1019.37 1019.86 1020.27 1020.60 1020.86 1021.02 1021.09 1021.06 1020.91 1020.68 1020.36 1019.98 1019.57 1019.17 1018.80 1018.50 1018.27 1018.13 1018.07 1018.07 1018.10 1018.14 1018.16 1018.12 1018.01 1017.82 1017.53 1017.15 1016.68 1016.14 1015.54 1014.89 1014.20 1013.48 1012.74 1011.98 1011.21 1010.42 1009.63 1008.84 1008.08 1007.37
1019.17 1019.65 1020.03 1020.35 1020.59 1020.77 1020.88 1020.90 1020.83 1020.66 1020.40 1020.06 1019.68 1019.28 1018.90 1018.57 1018.32 1018.17 1018.10 1018.11 1018.17 1018.25 1018.32 1018.33 1018.27 1018.11 1017.85 1017.48 1017.01 1016.46 1015.84 1015.17 1014.46 1013.72 1012.97 1012.20 1011.41 1010.62 1009.81 1009.02 1008.23 1007.49 1006.81
1019.40 1019.80 1020.11 1020.35 1020.53 1020.66 1020.72 1020.71 1020.61 1020.42 1020.16 1019.83 1019.47 1019.10 1018.77 1018.50 1018.33 1018.24 1018.25 1018.32 1018.43 1018.54 1018.61 1018.60 1018.49 1018.26 1017.92 1017.46 1016.90 1016.27 1015.57 1014.82 1014.05 1013.27 1012.48 1011.68 1010.88 1010.08 1009.29 1008.51 1007.77 1007.09 1006.48
1019.51 1019.85 1020.11 1020.31 1020.45 1020.54 1020.58 1020.55 1020.45 1020.27 1020.02 1019.72 1019.40 1019.09 1018.82 1018.63 1018.53 1018.52 1018.58 1018.70 1018.83 1018.95 1018.99 1018.94 1018.77 1018.47 1018.04 1017.49 1016.84 1016.12 1015.35 1014.54 1013.71 1012.88 1012.06 1011.24 1010.43 1009.64 1008.89 1008.17 1007.51 1006.92 1006.43
1019.55 1019.86 1020.09 1020.26 1020.38 1020.46 1020.49 1020.46 1020.37 1020.21 1020.00 1019.75 1019.49 1019.25 1019.06 1018.95 1018.92 1018.97 1019.08 1019.22 1019.35 1019.44 1019.44 1019.33 1019.08 1018.69 1018.18 1017.55 1016.83 1016.04 1015.20 1014.34 1013.47 1012.61 1011.75 1010.92 1010.12 1009.36 1008.65 1008.01 1007.45 1006.99 1006.64
1019.60 1019.89 1020.10 1020.25 1020.36 1020.43 1020.46 1020.45 1020.37 1020.25 1020.09 1019.91 1019.73 1019.57 1019.47 1019.43 1019.46 1019.56 1019.68 1019.82 1019.92 1019.96 1019.90 1019.70 1019.38 1018.91 1018.32 1017.63 1016.85 1016.01 1015.13 1014.24 1013.34 1012.46 1011.59 1010.76 1009.97 1009.24 1008.58 1008.02 1007.58 1007.25 1007.06
1019.70 1019.96 1020.15 1020.29 1020.39 1020.46 1020.49 1020.49 1020.45 1020.38 1020.28 1020.17 1020.08 1020.01 1019.99 1020.02 1020.11 1020.22 1020.35 1020.45 1020.50 1020.46 1020.31 1020.04 1019.62 1019.09 1018.44 1017.69 1016.88 1016.02 1015.13 1014.23 1013.33 1012.44 1011.57 1010.75 1009.98 1009.28 1008.68 1008.21 1007.86 1007.66 1007.61
1019.87 1020.09 1020.25 1020.37 1020.46 1020.52 1020.56 1020.58 1020.57 1020.55 1020.53 1020.50 1020.50 1020.52 1020.58 1020.67 1020.78 1020.90 1021.00 1021.05 1021.02 1020.90 1020.65 1020.28 1019.79 1019.18 1018.49 1017.73 1016.91 1016.06 1015.18 1014.30 1013.42 1012.55 1011.70 1010.89 1010.15 1009.49 1008.94 1008.53 1008.27 1008.17 1008.24
1020.10 1020.27 1020.39 1020.48 1020.54 1020.60 1020.64 1020.68 1020.71 1020.75 1020.80 1020.86 1020.95 1021.05 1021.18 1021.32 1021.45 1021.55 1021.60 1021.58 1021.46 1021.23 1020.89 1020.42 1019.85 1019.20 1018.48 1017.72 1016.92 1016.10 1015.27 1014.44 1013.61 1012.78 1011.97 1011.20 1010.48 1009.85 1009.35 1008.99 1008.79 1008.76 1008.90
Thickness
5739 5736 5732 5728 5723 5718 5713 5708 5704 5700 5697 5692 5684 5677 5669 5664 5660 5655 5651 5647 5643 5640 5636 5632 5629 5626 5622 5617 5613 5609 5602 5596 5592 5589 5590 5594 5593 5589 5585 5581 5578 5576 5573
5734 5729 5723 5718 5713 5708 5703 5699 5694 5689 5686 5680 5674 5666 5659 5652 5647 5642 5638 5634 5630 5627 5624 5619 5615 5611 5606 5601 5596 5590 5583 5577 5570 5563 5561 5565 5572 5572 5566 5558 5553 5551 5549
5730 5723 5716 5710 5705 5699 5695 5689 5684 5679 5674 5670 5664 5656 5648 5641 5635 5630 5624 5620 5617 5613 5609 5604 5599 5594 5588 5581 5576 5569 5562 5554 5548 5541 5535 5531 5536 5541 5545 5537 5532 5527 5525
5723 5717 5709 5702 5697 5691 5686 5679 5673 5668 5662 5658 5652 5644 5635 5627 5621 5616 5611 5607 5602 5597 5592 5587 5582 5576 5570 5563 5557 5550 5543 5535 5527 5521 5517 5512 5511 5512 5520 5517 5511 5507 5504
5713 5708 5701 5695 5689 5684 5676 5668 5661 5655 5649 5644 5638 5631 5623 5616 5609 5604 5598 5593 5588 5583 5577 5571 5565 5559 5553 5546 5540 5534 5527 5520 5512 5505 5501 5497 5496 5495 5495 5498 5495 5493 5491
5702 5697 5692 5686 5680 5674 5666 5657 5649 5642 5637 5632 5625 5618 5610 5602 5596 5589 5583 5578 5573 5568 5562 5557 5550 5544 5539 5533 5528 5522 5516 5509 5502 5496 5491 5487 5484 5484 5483 5483 5484 5483 5484
5693 5688 5681 5674 5668 5662 5654 5645 5639 5631 5625 5619 5612 5605 5598 5590 5583 5576 5570 5564 5558 5553 5548 5542 5537 5532 5527 5522 5517 5511 5505 5500 5495 5489 5485 5481 5477 5476 5475 5474 5475 5476 5478
5685 5679 5672 5665 5658 5652 5644 5635 5628 5621 5615 5609 5601 5594 5588 5580 5573 5566 5559 5551 5545 5539 5534 5529 5524 5521 5517 5512 5507 5501 5496 5491 5486 5482 5478 5475 5472 5470 5468 5466 5466 5469 5472
5678 5672 5664 5657 5651 5642 5634 5626 5619 5612 5606 5599 5591 5583 5577 5569 5561 5553 5546 5538 5531 5526 5521 5517 5513 5510 5507 5502 5496 5490 5485 5480 5475 5472 5469 5466 5465 5463 5462 5461 5459 5459 5465
5670 5664 5656 5648 5640 5632 5623 5615 5608 5602 5595 5588 5581 5572 5564 5556 5548 5540 5532 5524 5518 5513 5510 5507 5504 5501 5497 5491 5485 5479 5474 5469 5464 5461 5459 5457 5456 5456 5456 5456 5456 5454 5455
5661 5654 5646 5637 5628 5618 5610 5602 5596 5590 5583 5575 5568 5560 5552 5544 5535 5527 5519 5512 5507 5504 5502 5499 5496 5492 5487 5481 5474 5468 5463 5458 5454 5451 5449 5448 5448 5448 5450 5451 5452 5451 5451
5652 5644 5634 5624 5613 5604 5597 5591 5585 5579 5572 5564 5557 5549 5541 5532 5524 5516 5509 5504 5500 5499 5496 5493 5489 5484 5478 5471 5464 5458 5453 5448 5444 5442 5439 5439 5441 5441 5442 5445 5447 5448 5449
5641 5632 5622 5611 5601 5593 5587 5581 5575 5568 5561 5554 5545 5537 5530 5522 5515 5508 5503 5500 5496 5494 5491 5487 5482 5476 5469 5461 5453 5447 5442 5437 5434 5432 5430 5431 5432 5434 5437 5439 5442 5445 5447
5628 5618 5606 5596 5589 5583 5578 5571 5564 5557 5551 5543 5534 5527 5520 5514 5507 5503 5499 5496 5492 5488 5485 5480 5475 5468 5459 5450 5442 5436 5431 5427 5424 5423 5423 5424 5425 5428 5431 5434 5437 5440 5443
5611 5601 5589 5581 5576 5571 5566 5560 5554 5547 5539 5531 5524 5517 5512 5507 5502 5498 5495 5491 5487 5483 5478 5472 5466 5458 5448 5439 5432 5426 5422 5418 5416 5416 5416 5417 5420 5424 5425 5428 5432 5436 5440
5595 5586 5579 5573 5566 5561 5555 5549 5542 5534 5527 5520 5515 5510 5506 5501 5497 5493 5490 5485 5480 5474 5468 5462 5454 5445 5437 5428 5420 5416 5412 5408 5408 5408 5409 5410 5413 5416 5419 5423 5428 5433 5438
5584 5575 5568 5561 5555 5549 5544 5537 5530 5523 5517 5512 5509 5505 5502 5497 5493 5489 5484 5478 5471 5464 5457 5449 5441 5432 5423 5415 5408 5405 5401 5398 5399 5400 5401 5404 5408 5410 5413 5419 5427 5433 5440
5575 5566 5557 5551 5545 5539 5533 5527 5520 5514 5510 5506 5504 5501 5498 5494 5489 5484 5477 5470 5462 5454 5445 5437 5428 5418 5409 5403 5398 5395 5391 5390 5392 5393 5395 5398 5402 5407 5411 5417 5425 5435 5444
5563 5555 5548 5542 5535 5530 5524 5518 5511 5507 5505 5502 5500 5498 5494 5490 5485 5479 5471 5463 5453 5443 5433 5423 5413 5404 5396 5391 5387 5385 5382 5383 5386 5389 5392 5394 5398 5403 5407 5415 5424 5435 5446
5551 5545 5539 5534 5527 5521 5516 5509 5504 5501 5499 5499 5497 5495 5491 5486 5480 5473 5464 5453 5442 5430 5419 5409 5400 5392 5385 5381 5378 5377 5376 5378 5381 5386 5390 5394 5396 5401 5406 5414 5423 5434 5445
5542 5538 5532 5524 5519 5514 5509 5502 5499 5497 5497 5496 5494 5490 5485 5479 5473 5463 5452 5440 5427 5415 5405 5395 5387 5381 5376 5373 5371 5371 5370 5372 5376 5381 5386 5391 5395 5400 5407 5415 5424 5433 5441
5535 5530 5521 5515 5511 5507 5502 5498 5495 5495 5493 5492 5487 5482 5477 5471 5462 5449 5437 5425 5413 5401 5391 5383 5377 5372 5369 5367 5367 5366 5367 5368 5372 5377 5382 5388 5393 5400 5408 5417 5426 5434 5440
5527 5520 5513 5508 5505 5502 5497 5494 5493 5492 5489 5486 5479 5473 5466 5456 5447 5435 5423 5411 5400 5390 5382 5374 5369 5367 5366 5364 5362 5363 5364 5367 5370 5375 5381 5387 5394 5401 5410 5419 5427 5434 5437
5518 5513 5508 5504 5501 5498 5496 5493 5491 5489 5484 5478 5471 5464 5453 5442 5434 5424 5414 5402 5392 5382 5375 5369 5365 5363 5362 5360 5359 5359 5361 5365 5369 5374 5381 5388 5394 5402 5410 5418 5426 5431 5434
5511 5507 5504 5500 5497 5495 5493 5492 5488 5484 5477 5470 5462 5453 5443 5433 5423 5414 5404 5395 5386 5378 5369 5364 5360 5359 5358 5356 5354 5355 5358 5362 5367 5373 5381 5388 5394 5401 5409 5417 5423 5428 5431
5505 5503 5500 5496 5492 5490 5489 5487 5483 5478 5470 5461 5452 5444 5435 5425 5415 5405 5396 5389 5381 5374 5366 5360 5355 5354 5353 5353 5354 5356 5359 5363 5368 5375 5380 5386 5392 5398 5405 5413 5419 5424 5428